Jackson, NJ

4:15 PM EST on December 09, 2016 (GMT -0500)
Lakehurst Naes

Weather History for KNEL - June, 2014

Change the Weather History Date:

Friday, June 13, 2014

  Actual Average Record
Temperature  
Mean Temperature 76 °F -  
Max Temperature 68 °F 77 °F 88 °F (2005)
Min Temperature 68 °F 61 °F 57 °F (2000)
Cooling Degree Days 11    
Growing Degree Days 26 (Base 50)    
Moisture  
Dew Point 69 °F    
Average Humidity 90    
Maximum Humidity 100    
Minimum Humidity 61    
Precipitation  
Precipitation 0.09 in - - ()
Sea Level Pressure  
Sea Level Pressure 29.80 in    
Wind  
Wind Speed 6 mph (SE)    
Max Wind Speed 15 mph    
Max Gust Speed 21 mph    
Visibility 5 miles    
Events Fog , Rain , Thunderstorm    
Averages and records for this station are not official NWS values.
T = Trace of Precipitation, MM = Missing Value Source: NWS Daily Summary

Daily Weather History Graph

Daily Weather History Graph

Search for Another Location

Airport or City:

Trip Planner

Search our weather history database for the weather conditions in past years. The results will help you decide how hot, cold, wet, or windy it might be!

Date:

Astronomy

Jun. 13, 2014 Rise Set
Actual Time 5:27 AM EDT 8:27 PM EDT
Civil Twilight 4:55 AM EDT 9:00 PM EDT
Nautical Twilight 4:13 AM EDT 9:41 PM EDT
Astronomical Twilight 3:25 AM EDT 10:30 PM EDT
Moon 8:55 PM EDT (6/13) 6:04 AM EDT (6/13)
Length of Visible Light 16h 04m
Length of Day
14h 59m
Full, 100% of the Moon is Illuminated
Jun 13
Full
Jun 19
Last Quarter
Jun 27
New
Jul 5
First Quarter
Jul 12
Full

Hourly Weather History & Observations

Time (EDT) Temp. Heat Index Dew Point Humidity Pressure Visibility Wind Dir Wind Speed Gust Speed Precip Events Conditions
12:00 AM 69.1 °F - 68.0 °F 96% 29.90 in 1.0 mi East 6.9 mph - N/A   Mist
12:19 AM 69.1 °F - 68.0 °F 96% 29.90 in 0.8 mi East 8.1 mph - N/A   Mist
3:00 AM 68.0 °F - 68.0 °F 100% 29.85 in 0.5 mi ESE 5.8 mph - N/A Fog Fog
3:18 AM 68.0 °F - 68.0 °F 100% 29.84 in 1.0 mi ESE 4.6 mph - 0.00 in Rain Light Rain
3:33 AM 68.0 °F - 68.0 °F 100% 29.84 in 1.2 mi East 5.8 mph - 0.00 in   Overcast
4:00 AM 68.0 °F - 68.0 °F 100% 29.84 in 0.5 mi ESE 5.8 mph - 0.00 in Fog Fog
4:06 AM 68.0 °F - 68.0 °F 100% 29.84 in 0.5 mi ESE 3.5 mph - 0.00 in Fog Fog
5:00 AM 68.0 °F - 68.0 °F 100% 29.81 in 0.5 mi East 4.6 mph - N/A Fog Fog
6:00 AM 68.0 °F - 68.0 °F 100% 29.81 in 0.2 mi ESE 3.5 mph - 0.01 in Fog Fog
6:42 AM 69.1 °F - 68.0 °F 96% 29.81 in 1.0 mi East 4.6 mph - 0.07 in Rain Rain
6:53 AM 69.1 °F - 68.0 °F 96% 29.82 in 1.5 mi SSE 6.9 mph - 0.15 in Rain Heavy Rain
7:00 AM 68.0 °F - 68.0 °F 100% 29.82 in 0.2 mi SSE 4.6 mph - 0.42 in Fog , Rain Heavy Rain
7:06 AM 68.0 °F - 68.0 °F 100% 29.82 in 0.5 mi East 5.8 mph - 0.54 in Fog , Rain Heavy Rain
7:18 AM 69.8 °F - 68.0 °F 94% 29.82 in 3.0 mi ESE 5.8 mph - 0.58 in Rain Light Rain
9:00 AM 71.1 °F - 70.0 °F 96% 29.81 in 10.0 mi SW 3.5 mph - 0.00 in   Overcast
11:00 AM 75.0 °F - 71.1 °F 87% 29.81 in - SSW 3.5 mph - N/A   Unknown
11:51 AM 80.1 °F 83.6 °F 71.1 °F 74% 29.80 in 10.0 mi WNW 6.9 mph - N/A   Mostly Cloudy
12:00 PM 79.0 °F - 70.0 °F 74% 29.80 in 10.0 mi Variable 3.5 mph - N/A   Mostly Cloudy
12:34 PM 81.0 °F 84.4 °F 70.0 °F 69% 29.79 in 10.0 mi West 5.8 mph - N/A   Mostly Cloudy
1:00 PM 82.0 °F 86.3 °F 71.1 °F 69% 29.78 in 10.0 mi Variable 4.6 mph - N/A   Mostly Cloudy
2:00 PM 84.0 °F 87.8 °F 69.1 °F 61% 29.75 in 10.0 mi WSW 9.2 mph - N/A   Partly Cloudy
3:00 PM 82.9 °F 88.8 °F 73.0 °F 72% 29.73 in 10.0 mi ESE 11.5 mph - N/A   Scattered Clouds
4:00 PM 82.0 °F 86.7 °F 72.0 °F 71% 29.72 in 10.0 mi SSE 8.1 mph - N/A   Overcast
5:00 PM 82.9 °F 86.5 °F 69.1 °F 63% 29.71 in 10.0 mi SSW 8.1 mph - N/A   Clear
5:58 PM 77.0 °F - 73.4 °F 89% 29.73 in 1.8 mi SW 10.4 mph - 0.05 in Rain Heavy Rain
6:00 PM 77.0 °F - 72.0 °F 84% 29.73 in 1.5 mi WSW 9.2 mph - 0.05 in Rain Heavy Rain
6:07 PM 75.0 °F - 70.0 °F 84% 29.74 in 4.0 mi WNW 15.0 mph 20.7 mph 0.00 in Rain Light Rain
6:39 PM 70.0 °F - 66.9 °F 90% 29.77 in 8.0 mi West 9.2 mph - 0.02 in Rain , Thunderstorm Light Thunderstorms and Rain
7:00 PM 70.0 °F - 68.0 °F 93% 29.78 in 4.0 mi WNW 4.6 mph - 0.03 in Rain , Thunderstorm Thunderstorms and Rain
7:08 PM 70.0 °F - 68.0 °F 93% 29.78 in 1.5 mi NW 4.6 mph - 0.04 in Rain , Thunderstorm Thunderstorms and Rain
7:16 PM 70.0 °F - 68.0 °F 93% 29.78 in 1.5 mi Variable 4.6 mph - 0.05 in Rain Light Rain
7:18 PM 70.0 °F - 68.0 °F 93% 29.78 in 3.0 mi NNW 4.6 mph - 0.05 in Rain Light Rain
7:33 PM 70.0 °F - 68.0 °F 93% 29.79 in 8.0 mi Calm Calm - 0.05 in Rain Light Rain
8:13 PM 70.0 °F - 69.1 °F 97% 29.79 in 9.0 mi ENE 3.5 mph - N/A Thunderstorm Thunderstorm
8:17 PM 70.0 °F - 69.1 °F 97% 29.79 in 10.0 mi NE 3.5 mph - N/A   Mostly Cloudy
9:00 PM 70.0 °F - 69.1 °F 97% 29.78 in 10.0 mi East 3.5 mph - N/A   Partly Cloudy
10:00 PM 70.0 °F - 69.1 °F 97% 29.79 in 10.0 mi ESE 4.6 mph - N/A   Scattered Clouds
11:00 PM 69.1 °F - 68.0 °F 96% 29.80 in 9.0 mi SW 3.5 mph - N/A   Scattered Clouds